Location: Wanzleben
(52.0609°N, 11.4408°E)
Time: 10:19:02
(UTC+00:00)

SJ 16-02 - Pass Details

Date: 18 September 2020
Orbit: 606 x 616 km, 75.0° (Epoch: 31 October)

Event Time Altitude Azimuth Distance (km) Brightness Sun altitude
Rises 17:58:53 0° 207° (SSW) 2,855 5.0 -6.6°
Reaches altitude 10° 18:01:07 10° 209° (SSW) 1,955 4.2 -6.9°
Maximum altitude 18:05:28 73° 295° (WNW) 639 1.6 -7.6°
Drops below altitude 10° 18:09:52 10° 20° (NNE) 1,968 3.9 -8.2°
Sets 18:12:07 0° 23° (NNE) 2,877 4.7 -8.6°
